Погода в Херсоне

Погода в Херсоне : погода сейчас, прогноз погоды и архив. Всё, что Вы хотите узнать о погоде в Херсоне!

Хотите узнать прогноз погоды в Херсоне? Тогда Вам сюда: Погода в Херсоне

Поиск расширенной информации на нашем сайте:

Другие новости

Новости СМИ2

Главная страница сайта

Новости сайта

03.07.2017

Напоминаем, что на нашем специализированном сайте Метеоцентр.Азия вы можете получить высокодетализированные автоматические прогнозы погоды по пунктам России, СНГ и мира в авиационном формате (включающие направление и скорость ветра, видимость, явления погоды, количество и форму облачности, нижнюю и верхнюю границу облачности).


Погода в Херсоне - сегодня

Время (UTC), дата Ветер
(°,м/с) 
Видим.   Явления Облачность Т
(°С)
Тd
(°С)
f(%) Тe
(°С)
Pmin
(гПа)
dP
(гПа)
Po
(мм)
O2
(г/м3)
Тmin Tmax R s Состояние
почвы
12 14.10.18 040 (СВ) 10 км    ясно 
+22.4 +3 28 +22  1027.8  -1.4  766  285           
15 14.10.18 020 (С) 10 км    ясно 
+20 +2.7 32 +20  1027.2  -0.7  766  287           
18 14.10.18 010 (С) 10 км    ясно 
+13 +2.4 48 +13  1027.7  0.3  766  294    +22.7       
21 14.10.18 340 (С) 10 км    ясно 
+9.7 +1.7 57 +11  1027.9  0.2  766  298           
00 15.10.18 350 (С) 10 км    ясно 
+9.5 +3.2 65 +10  1027.7  -0.2  766  298           
03 15.10.18 030 (СВ) 10 км    ясно 
+8.1 +3.4 72 +8  1027.4  -0.4  766  299           
06 15.10.18 070 (В) 10 км    4/0 верхняя 
[Ci fib]
+11 +6 71 +11  1027.5  0.2  766  296  +7.3         
09 15.10.18 070 (В) 20000 м    8/3 2000 м средняя, верхняя 
[Ac lent|Cc]
+20 +8.4 47 +20  1027.1  -0.2  766  286           
12 15.10.18 060 (СВ) 20000 м    6/0 верхняя 
[Cc]
+22.8 +8.4 40 +23  1025.9  -1.1  765  283           
15 15.10.18 060 (СВ) 10 км    4/0 верхняя 
[Ci]
+21.1 +7.2 41 +21  1025.9  -0.1  765  285           
18 15.10.18 050 (СВ) 10 км    ясно 
+16.3 +6.2 51 +17  1026.2  0.2  765  290    +23.8       
21 15.10.18 040 (СВ) 10 км    ясно 
+13 +5.7 61 +13  1026.2  765  293           
00 16.10.18 020 (С) 10 км    ясно 
+9.3 +6 80 +10  1026.1  -0.2  765  297           
03 16.10.18 030 (СВ) 10 км    ясно 
+11 +7.7 80 +12  1026  -0.1  765  295           
06 16.10.18 090 (В) 10 км    ясно 
+14.6 +10.8 78 +17  1026.4  0.5  765  291  +8.5         
09 16.10.18 090 (В) 20000 м    ясно 
+22.6 +8.6 41 +23  1025.8  -0.4  765  283           
12 16.10.18 090 (В) 20000 м    ясно 
+25.5 +8.8 35 +26  1024.5  -1.3  764  280           
15 16.10.18 090 (В) 20000 м    ясно 
+22.1 +9.4 44 +22  1024.3  -0.2  764  283           
18 16.10.18 080 (В) 10 км    ясно 
+16.1 +9.3 64 +17  1025.4  0.9  764  289           
21 16.10.18 040 (СВ) 10 км    ясно 
+11.8 +7.7 76 +13  1025.3  -0.2  764  294           
00 17.10.18 040 (СВ) 4000 м  дымка  ясно 
+10.9 +8.7 86 +12  1024.9  -0.4  764  294           
03 17.10.18 050 (СВ) 2000 м  дымка  ясно 
+11.5 +9.7 89 +12  1024.8  -0.1  764  294           
06 17.10.18 070 (В) 10 км    ясно 
+14.3 +10.9 80 +16  1024.7  764  290  +9.8         
09 17.10.18 070 (В) 20000 м    ясно 
+22.1 +10.1 46 +23  1024.2  -0.3  763  283           
12 17.10.18 070 (В) 20000 м    ясно 
+24 +9.4 40 +24  1022.9  -1.3  762  281           
Время (UTC), дата Ветер
(°,м/с) 
Видим.   Явления Облачность Т
(°С)
Тd
(°С)
f(%) Тe
(°С)
Pmin
(гПа)
dP
(гПа)
Po
(мм)
O2
(г/м3)
Тmin Tmax R s Состояние
почвы

Для получения пояснительной информации подведите курсор к названию столбца.

ПОГОДА в Херсоне - архив

Всё, что Вы хотите узнать о погоде в Херсоне - удобно и подробно!

Выберите нужную дату (начиная с 1 января 2015* года) и нажмите кнопку "Найти".
Будут отображены архивные сводки погоды по пункту Херсон, начиная с указанной даты.


Отображать данные в формате CSV (для использования в таблицах Excel)


Внимание! Наш архив погоды предназначен исключительно для личного некоммерческого использования в познавательных целях. Если Вам необходимы официальные справки о состоянии погоды (для производственных, юридических, коммерческих и т.п. целей), обращайтесь в органы Росгидромета.

*Примечание: данная дата относится к архиву по метеостанциям СССР (Россия, СНГ, Балтия).
Архив по метеостанциям Зарубежной Европы и Азии (кроме Китая) хранится 10 дней, по другим регионам земного шара (Китай, Африка, Америка, Австралия, Океания) - 1 день.

Херсон - район местоположения метеостанции


Название, широта, долгота, высота метеостанции:
Херсон 46.6°ш. 32.6°д. 54 м над ур. моря [Украина]

Дополнительная информация

В oтличие oт бoльшинства пoгoдных сайтoв мы публикуем пoдрoбную метеoинфoрмацию в детальнoм прoфессиoнальнoм фoрмате.

Характеристики температуры и влажнoсти вoздуха измеряются на высoте 2 м в тени вдали oт зданий и деревьев.
Скoрoсть ветра измеряется на высoте 10 м (на урoвне рoста челoвека скoрoсть ветра ниже в 1.5-2 раза). Если метеoстанция нахoдится в гoрoде или в лесу, тo скoрoсть ветра занижена на 2-4 м/с пo сравнению с oткрытым местoм. Скoрoсть ветра над акватoриями крупных рек и oзёр, а также на вершинах хoлмoв на 2-5 м/с выше, чем в oбычных услoвиях.
Атмoсфернoе давление в разных тoчках местнoсти мoжет значительнo oтличаться oт давления на метеoстанции, в зависимoсти oт услoвий рельефа (при пoдъёме на 10 м давление пoнижается примернo на 1 мм рт.ст.).